Location: Ústí nad Labem
(50.6611°N, 14.0531°E)
Time: 21:37:18
(UTC+02:00)

Envisat - Pass Details

Date: 06 March 2024
Orbit: 762 x 764 km, 98.3° (Epoch: 13 April)

Event Time Altitude Azimuth Distance (km) Brightness Sun altitude
Rises 04:50:52 0° 7° (N) 3,243 6.5 -17.5°
Reaches altitude 10° 04:53:26 10° 356° (N) 2,312 5.6 -17.1°
Maximum altitude 04:57:43 28° 299° (WNW) 1,411 4.0 -16.4°
Enters shadow 04:58:52 25° 276° (W) 1,495 3.9 -16.2°
